Weather in Holovanivsk

Ukraine / Kirovohrad Region     48°21′40″N   30°23′51″E
temp.,
°C
wind,
m/s
gust,
m/s
humid.,
%
clouds,
%
prec.,
mm/h
press.,
hPa
HPBL,
m
7 may, fri
fri700:00+8wnw227163 0.0 101512
03:00+7ssw227331 0.0 101511
06:00+7ssw228096 0.0 101420
09:00+14s4559100 0.0 1014380
12:00+16s7953100 0.0 10131399
15:00+16s71267100 0.4 10111145
18:00+16s81371100 0.3 1009983
21:00+13s71580100 0.5 1009541
8 may, sat
sat800:00+11s4109399 1.8 1008354
03:00+10s4998100 2.6 1007290
06:00+11wnw5109499 0.8 1007492
09:00+11nw91180100 0.9 1011939
12:00+13nw81055100 0.0 10131470
15:00+14nw81141100 0.0 10142462
18:00+12nw895682 0.0 10161930
21:00+7nw711715 0.1 1019658
9 may, sun
sun900:00+4nnw512835 0.0 1021490
03:00+3wnw411910 0.0 1022393
06:00+3nw411860 0.0 1024308
09:00+9nnw57630 0.0 1025655
12:00+12nnw67476 0.0 10251772
15:00+14nnw454041 0.0 10252283
18:00+14nw454210 0.0 10262028
21:00+9nw11576 0.0 102710
10 may, mon
mon1000:00+7ene226616 0.0 102810
03:00+6s11695 0.0 102810
06:00+6e22740 0.0 102913
09:00+12ese23580 0.0 1029471
12:00+16nne12440 0.0 10281676
15:00+17nne33403 0.0 10261915
18:00+16nne45442 0.0 10251709
21:00+10ne48640 0.0 1026131
11 may, tue
tue1100:00+8nne35740 0.0 102567
03:00+7n4107545 0.0 1024182
06:00+7n5117625 0.0 1023258
09:00+13nne69645 0.0 1022485
12:00+19nne68575 0.0 1020767
15:00+21nne785519 0.0 10181251
18:00+19ne7106811 0.8 10171289
21:00+13ene6118699 1.6 1019524